UAL7820 MMMY-KSAT

Flight info

Callsign UAL7820
Flight time 0h 45m
Altitude 28000
Route URTAN1A URTAN UJ11E NLD/N0420F270 DCT WEGUS DCT LRD LEMIG1
Aircraft A21N/M-SDE2E3FGHIRWXY/LB1

Departure

Time 2026-04-22 02:59
Airport Monterrey International Airport (MMMY)

Arrival

Time 2026-04-22 03:44
Airport San Antonio International Airport (KSAT)
Time Latitude Longitude Altitude Speed Heading
2026-04-22 02:36 25.77931 -100.11433 1282 ft 0 kts 211°
2026-04-22 02:45 25.77937 -100.11428 1282 ft 3 kts 211°
2026-04-22 02:46 25.77955 -100.11417 1282 ft 3 kts 211°
2026-04-22 02:46 25.77972 -100.11405 1282 ft 3 kts 211°
2026-04-22 02:46 25.77986 -100.11396 1284 ft 3 kts 215°
2026-04-22 02:46 25.77999 -100.11383 1281 ft 3 kts 257°
2026-04-22 02:47 25.77998 -100.11363 1282 ft 3 kts 295°
2026-04-22 02:47 25.77991 -100.11349 1285 ft 1 kts 302°
2026-04-22 02:47 25.77989 -100.11345 1284 ft 0 kts 302°
2026-04-22 02:53 25.77988 -100.11345 1284 ft 1 kts 302°
2026-04-22 02:53 25.77991 -100.11349 1285 ft 0 kts 302°
2026-04-22 02:54 25.78007 -100.11378 1285 ft 14 kts 302°
2026-04-22 02:54 25.78087 -100.11522 1284 ft 28 kts 301°
2026-04-22 02:54 25.78182 -100.11694 1287 ft 25 kts 301°
2026-04-22 02:55 25.78239 -100.11797 1289 ft 5 kts 306°
2026-04-22 02:55 25.78285 -100.11801 1290 ft 0 kts 46°
2026-04-22 02:55 25.78309 -100.11784 1291 ft 0 kts 31°
2026-04-22 02:57 25.78316 -100.11779 1291 ft 3 kts 31°
2026-04-22 02:57 25.78358 -100.11752 1291 ft 11 kts 31°
2026-04-22 02:57 25.78402 -100.11704 1292 ft 9 kts 84°
2026-04-22 02:57 25.78382 -100.11643 1291 ft 1 kts 113°
2026-04-22 02:58 25.78358 -100.11602 1290 ft 11 kts 123°
2026-04-22 02:58 25.78343 -100.11576 1289 ft 0 kts 121°
2026-04-22 02:58 25.78246 -100.11398 1288 ft 64 kts 122°
2026-04-22 02:58 25.77877 -100.10735 1286 ft 133 kts 122°
2026-04-22 02:59 25.77448 -100.09854 1941 ft 137 kts 117°
2026-04-22 02:59 25.76857 -100.08720 1699 ft 203 kts 123°
2026-04-22 02:59 25.76011 -100.07275 1785 ft 236 kts 123°
2026-04-22 02:59 25.75118 -100.05730 2557 ft 236 kts 123°
2026-04-22 03:00 25.74243 -100.04193 3367 ft 240 kts 124°
2026-04-22 03:00 25.73528 -100.02484 3927 ft 252 kts 103°
2026-04-22 03:00 25.73612 -100.00511 4612 ft 264 kts 75°
2026-04-22 03:00 25.74517 -99.98751 5291 ft 273 kts 54°
2026-04-22 03:01 25.75869 -99.97217 6049 ft 278 kts 40°
2026-04-22 03:01 25.77449 -99.96013 6814 ft 280 kts 32°
2026-04-22 03:01 25.79162 -99.94963 7484 ft 283 kts 27°
2026-04-22 03:01 25.80963 -99.94020 8161 ft 288 kts 23°
2026-04-22 03:02 25.82802 -99.93142 8865 ft 289 kts 21°
2026-04-22 03:02 25.84667 -99.92282 9586 ft 291 kts 20°
2026-04-22 03:02 25.86552 -99.91416 10222 ft 296 kts 20°
2026-04-22 03:02 25.88506 -99.90513 10515 ft 313 kts 19°
2026-04-22 03:03 25.90619 -99.89769 10763 ft 327 kts 12°
2026-04-22 03:03 25.92881 -99.89153 11014 ft 341 kts
2026-04-22 03:03 25.95225 -99.88599 11248 ft 355 kts
2026-04-22 03:03 25.97686 -99.88067 11605 ft 364 kts
2026-04-22 03:04 26.00179 -99.87555 12076 ft 369 kts
2026-04-22 03:04 26.02714 -99.87037 12590 ft 371 kts
2026-04-22 03:04 26.05271 -99.86497 13123 ft 375 kts
2026-04-22 03:04 26.07835 -99.85951 13676 ft 377 kts
2026-04-22 03:05 26.10422 -99.85399 14171 ft 380 kts
2026-04-22 03:05 26.13038 -99.84841 14653 ft 384 kts
2026-04-22 03:05 26.15677 -99.84277 15157 ft 387 kts
2026-04-22 03:05 26.18334 -99.83709 15633 ft 391 kts
2026-04-22 03:06 26.21005 -99.83136 16137 ft 394 kts
2026-04-22 03:06 26.23668 -99.82563 16681 ft 395 kts
2026-04-22 03:06 26.26363 -99.81983 17193 ft 397 kts
2026-04-22 03:06 26.29097 -99.81395 17656 ft 401 kts
2026-04-22 03:07 26.31839 -99.80807 18088 ft 404 kts
2026-04-22 03:07 26.34618 -99.80210 18502 ft 407 kts
2026-04-22 03:07 26.37403 -99.79611 18894 ft 410 kts
2026-04-22 03:07 26.40213 -99.79006 19289 ft 412 kts
2026-04-22 03:08 26.43037 -99.78398 19679 ft 414 kts
2026-04-22 03:08 26.45872 -99.77786 19911 ft 415 kts
2026-04-22 03:08 26.48704 -99.77175 19949 ft 416 kts
2026-04-22 03:08 26.51516 -99.76568 19951 ft 417 kts
2026-04-22 03:09 26.54362 -99.75953 19958 ft 417 kts
2026-04-22 03:09 26.57211 -99.75337 19951 ft 418 kts
2026-04-22 03:09 26.60065 -99.74720 19949 ft 418 kts
2026-04-22 03:09 26.62920 -99.74103 19949 ft 418 kts
2026-04-22 03:10 26.65775 -99.73485 19949 ft 418 kts
2026-04-22 03:10 26.68645 -99.72865 20163 ft 421 kts
2026-04-22 03:10 26.71529 -99.72242 20614 ft 422 kts
2026-04-22 03:10 26.74378 -99.71595 21025 ft 426 kts
2026-04-22 03:11 26.77274 -99.70613 21426 ft 432 kts 13°
2026-04-22 03:11 26.80092 -99.69533 21803 ft 436 kts 14°
2026-04-22 03:11 26.82949 -99.68398 22182 ft 438 kts 14°
2026-04-22 03:11 26.85829 -99.67236 22635 ft 440 kts 15°
2026-04-22 03:12 26.88705 -99.66068 23098 ft 440 kts 15°
2026-04-22 03:12 26.94499 -99.63707 23772 ft 446 kts 15°
2026-04-22 03:12 26.97426 -99.62511 24054 ft 449 kts 15°
2026-04-22 03:13 27.00328 -99.61324 24326 ft 451 kts 15°
2026-04-22 03:13 27.03286 -99.60114 24595 ft 454 kts 15°
2026-04-22 03:13 27.06256 -99.58897 24868 ft 456 kts 14°
2026-04-22 03:13 27.09237 -99.57675 25155 ft 458 kts 14°
2026-04-22 03:14 27.12246 -99.56441 25422 ft 460 kts 14°
2026-04-22 03:14 27.15260 -99.55205 25711 ft 462 kts 14°
2026-04-22 03:14 27.18297 -99.53958 25875 ft 467 kts 14°
2026-04-22 03:14 27.21325 -99.52715 26123 ft 469 kts 14°
2026-04-22 03:15 27.24425 -99.51440 26412 ft 471 kts 14°
2026-04-22 03:15 27.27470 -99.50188 26654 ft 473 kts 14°
2026-04-22 03:15 27.30566 -99.48913 26909 ft 475 kts 14°
2026-04-22 03:15 27.33685 -99.47629 27151 ft 476 kts 14°
2026-04-22 03:16 27.36801 -99.46345 27404 ft 478 kts 14°
2026-04-22 03:16 27.39930 -99.45058 27636 ft 480 kts 14°
2026-04-22 03:16 27.43063 -99.43765 27973 ft 480 kts 14°
2026-04-22 03:16 27.46188 -99.42471 28306 ft 479 kts 15°
2026-04-22 03:17 27.49218 -99.40957 28608 ft 484 kts 21°
2026-04-22 03:17 27.52205 -99.39204 28922 ft 485 kts 22°
2026-04-22 03:17 27.55181 -99.37404 29034 ft 485 kts 22°
2026-04-22 03:17 27.58158 -99.35597 29047 ft 485 kts 22°
2026-04-22 03:18 27.64094 -99.32000 29044 ft 485 kts 22°
2026-04-22 03:18 27.70045 -99.28399 29046 ft 485 kts 22°
2026-04-22 03:19 27.75963 -99.24815 29063 ft 485 kts 22°
2026-04-22 03:19 27.81922 -99.21204 29030 ft 487 kts 22°
2026-04-22 03:20 27.87891 -99.17582 29036 ft 487 kts 22°
2026-04-22 03:20 27.93865 -99.13953 29024 ft 487 kts 22°
2026-04-22 03:21 27.99793 -99.10347 29030 ft 487 kts 22°
2026-04-22 03:21 28.05757 -99.06713 28976 ft 483 kts 23°
2026-04-22 03:22 28.08675 -99.04929 28731 ft 471 kts 22°
2026-04-22 03:22 28.11526 -99.03186 28462 ft 461 kts 22°
2026-04-22 03:22 28.14340 -99.01468 28206 ft 458 kts 22°
2026-04-22 03:22 28.17139 -98.99762 27950 ft 457 kts 22°
2026-04-22 03:23 28.19905 -98.98074 27693 ft 456 kts 22°
2026-04-22 03:23 28.22682 -98.96376 27465 ft 454 kts 22°
2026-04-22 03:23 28.25451 -98.94682 27212 ft 452 kts 22°
2026-04-22 03:23 28.28206 -98.92996 26946 ft 449 kts 22°
2026-04-22 03:24 28.30949 -98.91315 26523 ft 445 kts 22°
2026-04-22 03:24 28.33674 -98.89645 25867 ft 446 kts 22°
2026-04-22 03:24 28.36409 -98.87970 25196 ft 446 kts 22°
2026-04-22 03:24 28.39110 -98.86313 24554 ft 447 kts 22°
2026-04-22 03:25 28.41875 -98.84616 23869 ft 448 kts 23°
2026-04-22 03:25 28.44568 -98.82959 23399 ft 442 kts 23°
2026-04-22 03:25 28.47255 -98.81306 22775 ft 438 kts 23°
2026-04-22 03:25 28.49927 -98.79662 22203 ft 434 kts 23°
2026-04-22 03:26 28.52571 -98.78034 21613 ft 430 kts 23°
2026-04-22 03:26 28.55194 -98.76419 21062 ft 426 kts 23°
2026-04-22 03:26 28.57783 -98.74824 20493 ft 422 kts 23°
2026-04-22 03:26 28.60346 -98.73244 19962 ft 418 kts 24°
2026-04-22 03:27 28.62895 -98.71672 19428 ft 414 kts 24°
2026-04-22 03:27 28.65419 -98.70114 18913 ft 410 kts 24°
2026-04-22 03:27 28.67878 -98.68596 18397 ft 407 kts 24°
2026-04-22 03:27 28.70360 -98.67063 17774 ft 404 kts 24°
2026-04-22 03:28 28.72806 -98.65551 17193 ft 400 kts 24°
2026-04-22 03:28 28.75244 -98.64043 16621 ft 396 kts 25°
2026-04-22 03:28 28.77660 -98.62548 16062 ft 392 kts 25°
2026-04-22 03:28 28.80043 -98.61073 15484 ft 390 kts 25°
2026-04-22 03:29 28.82386 -98.59621 14941 ft 386 kts 25°
2026-04-22 03:29 28.84735 -98.58165 14411 ft 382 kts 25°
2026-04-22 03:29 28.87053 -98.56727 13530 ft 377 kts 25°
2026-04-22 03:29 28.89333 -98.55312 12660 ft 370 kts 25°
2026-04-22 03:30 28.91579 -98.53918 11727 ft 365 kts 25°
2026-04-22 03:30 28.93788 -98.52546 11029 ft 355 kts 26°
2026-04-22 03:30 28.95916 -98.51223 10451 ft 343 kts 25°
2026-04-22 03:30 28.98052 -98.50229 10102 ft 320 kts
2026-04-22 03:31 29.00196 -98.49911 9632 ft 304 kts
2026-04-22 03:31 29.02285 -98.49777 9018 ft 298 kts
2026-04-22 03:31 29.04323 -98.49675 8410 ft 297 kts
2026-04-22 03:31 29.06364 -98.49570 8049 ft 291 kts
2026-04-22 03:32 29.08374 -98.49460 8033 ft 289 kts
2026-04-22 03:32 29.10389 -98.49348 7882 ft 290 kts
2026-04-22 03:32 29.12406 -98.49233 7633 ft 290 kts
2026-04-22 03:32 29.14422 -98.49117 7384 ft 290 kts
2026-04-22 03:33 29.16412 -98.49001 7144 ft 290 kts
2026-04-22 03:33 29.18427 -98.48883 6912 ft 290 kts
2026-04-22 03:33 29.20442 -98.48764 6688 ft 290 kts
2026-04-22 03:33 29.22449 -98.48644 6630 ft 289 kts
2026-04-22 03:34 29.24459 -98.48523 6630 ft 289 kts
2026-04-22 03:34 29.26472 -98.48401 6627 ft 290 kts
2026-04-22 03:34 29.28483 -98.48280 6625 ft 290 kts
2026-04-22 03:34 29.30498 -98.48160 6626 ft 290 kts
2026-04-22 03:35 29.32485 -98.48041 6626 ft 290 kts
2026-04-22 03:35 29.34495 -98.47921 6625 ft 289 kts
2026-04-22 03:35 29.36511 -98.47824 6625 ft 289 kts 358°
2026-04-22 03:35 29.38476 -98.48210 6626 ft 286 kts 339°
2026-04-22 03:36 29.40310 -98.49096 6628 ft 286 kts 333°
2026-04-22 03:36 29.42103 -98.50085 6620 ft 287 kts 333°
2026-04-22 03:36 29.43902 -98.51092 6615 ft 287 kts 332°
2026-04-22 03:36 29.45698 -98.52094 6520 ft 287 kts 332°
2026-04-22 03:37 29.47472 -98.53079 6050 ft 288 kts 333°
2026-04-22 03:37 29.49276 -98.54077 5582 ft 287 kts 333°
2026-04-22 03:37 29.51064 -98.55063 5301 ft 283 kts 333°
2026-04-22 03:37 29.52837 -98.56041 5138 ft 283 kts 333°
2026-04-22 03:38 29.54615 -98.57021 5002 ft 283 kts 333°
2026-04-22 03:38 29.56381 -98.57995 4835 ft 283 kts 333°
2026-04-22 03:38 29.58160 -98.58976 4671 ft 282 kts 333°
2026-04-22 03:38 29.59892 -98.59930 4498 ft 270 kts 333°
2026-04-22 03:39 29.61566 -98.60854 4355 ft 266 kts 333°
2026-04-22 03:39 29.63210 -98.61762 4216 ft 266 kts 333°
2026-04-22 03:39 29.64875 -98.62680 4079 ft 267 kts 334°
2026-04-22 03:39 29.66689 -98.63260 3908 ft 278 kts
2026-04-22 03:40 29.68542 -98.62668 3758 ft 279 kts 36°
2026-04-22 03:40 29.69792 -98.61038 3602 ft 272 kts 71°
2026-04-22 03:40 29.70028 -98.58973 3461 ft 256 kts 106°
2026-04-22 03:40 29.69243 -98.57271 3246 ft 236 kts 141°
2026-04-22 03:41 29.67801 -98.56557 3040 ft 226 kts 178°
2026-04-22 03:41 29.66239 -98.56835 3155 ft 232 kts 198°
2026-04-22 03:41 29.64801 -98.57656 3175 ft 236 kts 206°
2026-04-22 03:41 29.63283 -98.58324 2700 ft 234 kts 181°
2026-04-22 03:42 29.61752 -98.57930 2192 ft 227 kts 145°
2026-04-22 03:42 29.60585 -98.56725 2070 ft 227 kts 134°
2026-04-22 03:42 29.59516 -98.55370 2170 ft 229 kts 132°
2026-04-22 03:42 29.58465 -98.54000 2167 ft 227 kts 132°
2026-04-22 03:43 29.57466 -98.52687 1937 ft 211 kts 132°
2026-04-22 03:43 29.56495 -98.51450 1476 ft 207 kts 131°
2026-04-22 03:43 29.55560 -98.50277 1207 ft 193 kts 129°
2026-04-22 03:43 29.54691 -98.49143 1041 ft 185 kts 129°
2026-04-22 03:44 29.53873 -98.48048 829 ft 173 kts 131°
2026-04-22 03:44 29.53115 -98.47082 797 ft 153 kts 131°
2026-04-22 03:44 29.52625 -98.46407 796 ft 66 kts 128°
2026-04-22 03:44 29.52525 -98.46177 789 ft 2 kts 39°
2026-04-22 03:45 29.52528 -98.46175 789 ft 0 kts 27°